TIANWANG 1A (TW-1A)
1 40928U 15051D   19293.77604051  .00002254  00000-0  55892-4 0  9995
2 40928  97.1355 322.3104 0010733 352.7690  97.2299 15.41366879228286
LAPAN A2
1 40931U 15052B   19292.20985885  .00000494  00000-0 -20270-4 0  9991
2 40931   6.0043 262.9338 0012634  88.9496 271.2511 14.76615781219406
LQSAT
1 40958U 15057A   19293.80009920  .00000017  00000-0  10201-4 0  9992
2 40958  97.8865 359.5649 0017753 198.9161 161.1390 14.73092624217076
CHUBUSAT 2
1 41338U 16012B   19293.78325829 +.00000325 +00000-0 +18487-4 0  9999
2 41338 031.0032 076.1285 0013905 252.9073 107.0039 15.00195191201561
CHUBUSAT 3
1 41339U 16012C   19293.67181770  .00000288  00000-0  15536-4 0  9993
2 41339  31.0098  74.7721 0013625 259.3297 100.5809 15.00367096201547
OUFTI-1
1 41458U 16025C   19293.24286902  .00000615  00000-0  35733-4 0  9990
2 41458  98.1003  26.3712 0164435 301.8815  56.6500 15.06091008191165
E-STAR-2
1 41459U 16025D   19293.82102734  .00000161  00000-0  12979-4 0  9998
2 41459  98.0997  26.5679 0165838 301.4395  57.0707 15.05706542191224
AAUSAT 4
1 41460U 16025E   19293.83729968  .00000984  00000-0  53382-4 0  9991
2 41460  98.0938  28.1465 0155774 292.7927  65.6865 15.07700041191379
NUSAT 1
1 41557U 16033B   19293.93569752 +.00001155 +00000-0 +45676-4 0  9999
2 41557 097.4145 020.7067 0012852 213.0542 146.9895 15.27453918189051
BEESAT 4
1 41619U 16040W   19293.73820439  .00001182  00000-0  52599-4 0  9998
2 41619  97.3543 353.5764 0009931 313.2721  46.7687 15.23380820172749
PRATHAM
1 41783U 16059A   19293.87006086 +.00000043 +00000-0 +17567-4 0  9990
2 41783 098.0534 350.6187 0033341 355.8576 004.2345 14.63014929163701
ALSAT 1N
1 41789U 16059G   19293.88933088 +.00000059 +00000-0 +20242-4 0  9999
2 41789 098.0563 352.9067 0028036 345.2314 014.8062 14.64268709163823
NAYIF 1
1 42017U 17008BX  19293.13423954  .00001300  00000-0  53655-4 0  9997
2 42017  97.3909 358.8925 0007941  94.2357 265.9789 15.25803489148749
MAX VALIER SAT
1 42778U 17036P   19293.71376540  .00000838  00000-0  39427-4 0  9990
2 42778  97.3406 348.5645 0013416 143.1102 217.1060 15.22191330129108
